#timestamp,LO_Frequency,Hit 
1502071215.2,286047025.3,N
1502071235.0,286047025.6,N
1502071235.9,286047025.6,N
1502071255.8,286047026.7,N
1502071275.6,286047025.7,N
1502071295.4,286047022.1,N
1502071315.3,286047022.7,N
1502071335.1,286047023.6,N
1502071355.8,286047021.0,N
1502071375.7,286047022.5,N
1502071395.5,286047021.3,N
1502071415.3,286047022.1,N
1502071435.2,286047023.5,N
1502071455.9,286047021.6,N
1502071475.7,286047023.1,N
1502071495.6,286047022.9,N
1502071515.4,286047022.9,N
1502071535.2,286047019.0,N
1502071555.0,286047023.1,N
1502071556.0,286047023.1,N
1502071575.8,286047023.0,N
1502071595.6,286047020.9,N
1502071615.4,286047023.1,N
1502071635.3,286047024.3,N
1502071655.1,286047022.7,N
1502071675.8,286047024.3,N
1502071695.7,286047021.7,N
1502071715.5,286047019.1,N
1502071735.3,286047021.8,N
1502071755.2,286047018.9,N
1502071775.9,286047025.2,N
1502071795.7,286047023.8,N
1502071815.6,286047023.3,N
1502071835.4,286047021.7,N
1502071855.2,286047023.5,N
1502071875.0,286047022.8,N
1502071875.9,286047022.8,N
1502071895.8,286047021.3,N
1502071915.6,286047021.7,N
1502071935.4,286047023.5,N
1502071955.3,286047023.5,N
1502071975.1,286047025.2,N
1502071995.8,286047026.1,N
1502072015.7,286047023.8,N
1502072035.5,286047023.4,N
1502072055.3,286047023.3,N
1502072075.2,286047023.7,N
1502072095.9,286047024.6,N
1502072115.7,286047025.5,N
1502072135.6,286047027.0,N
1502072155.4,286047027.7,N
1502072175.2,286047026.6,N
1502072195.0,286047026.6,N
1502072196.0,286047026.6,N
1502072215.8,286047029.9,N
1502072235.6,286047029.8,N
1502072255.4,286047028.2,N
1502072275.3,286047025.6,N
1502072295.1,286047027.4,N
1502072315.8,286047026.1,N
1502072335.7,286047025.3,N
1502072355.5,286047027.9,N
1502072375.3,286047029.6,N
1502072395.2,286047026.9,N
1502072415.9,286047028.6,N
1502072435.7,286047027.7,N
1502072455.6,286047027.7,N
1502072475.4,286047029.3,N
1502072495.2,286047028.8,N
1502072515.0,286047029.7,N
1502072515.9,286047029.7,N
1502072535.8,286047026.4,N
1502072555.6,286047026.0,N
1502072575.4,286047026.0,N
1502072595.3,286047027.7,N
1502072615.1,286047025.3,N
1502072635.8,286047023.0,N
1502072655.7,286047023.9,N
1502072675.5,286047025.4,N
1502072695.3,286047025.8,N
1502072715.2,286047024.2,N
1502072735.9,286047024.4,N
1502072755.7,286047026.5,N
1502072775.6,286047025.9,N
1502072795.4,286047027.6,N
1502072815.2,286047025.9,N
1502072835.0,286047025.2,N
1502072835.9,286047025.2,N
1502072855.8,286047026.5,N
1502072875.6,286047027.6,N
1502072895.4,286047028.2,N
1502072915.3,286047031.2,N
1502072935.1,286047027.3,N
1502072955.8,286047028.4,N
1502072975.7,286047026.9,N
1502072995.5,286047028.7,N
1502073015.3,286047026.8,N
1502073035.2,286047026.4,N
1502073055.9,286047023.8,N
1502073075.7,286047028.7,N
1502073095.5,286047029.8,N
1502073115.4,286047027.0,N
1502073135.2,286047025.5,N
1502073155.0,286047027.9,N
1502073155.9,286047027.9,N
1502073175.8,286047029.6,N
1502073195.6,286047031.3,N
1502073215.4,286047032.3,N
1502073235.3,286047028.8,N
1502073255.1,286047027.3,N
1502073275.8,286047029.5,N
1502073295.7,286047028.5,N
1502073315.5,286047030.8,N
1502073335.3,286047031.2,N
1502073355.2,286047026.9,N
1502073375.9,286047030.0,N
1502073395.7,286047029.8,N
1502073415.5,286047027.9,N
1502073435.4,286047028.0,N
1502073455.2,286047024.5,N
1502073475.0,286047025.5,N
1502073475.9,286047025.5,N
1502073495.8,286047025.4,N
1502073515.6,286047027.4,N
1502073535.4,286047027.2,N
1502073555.3,286047026.6,N
1502073575.1,286047024.9,N
1502073595.8,286047026.1,N
1502073615.7,286047026.9,N
1502073635.5,286047027.3,N
1502073655.3,286047029.3,N
1502073675.2,286047028.4,N
1502073695.9,286047029.0,N
1502073715.7,286047031.4,N
1502073735.5,286047031.3,N
1502073755.4,286047032.1,N
1502073775.2,286047034.1,N
1502073795.0,286047032.7,N
1502073795.9,286047032.7,N
1502073815.8,286047032.9,N
1502073835.6,286047032.8,N
1502073855.4,286047033.0,N
1502073875.3,286047032.8,N
1502073895.1,286047032.4,N
1502073896.0,286047032.4,N
1502073915.8,286047031.6,N
1502073935.7,286047029.2,N
1502073955.5,286047031.2,N
1502073975.3,286047030.1,N
1502073995.2,286047031.8,N
1502074015.9,286047032.5,N
1502074035.7,286047028.6,N
1502074055.5,286047028.9,N
1502074075.4,286047031.7,N
1502074095.2,286047031.7,N
1502074115.0,286047032.9,N
1502074115.9,286047032.9,N
1502074135.8,286047031.2,N
1502074155.6,286047028.5,N
1502074175.4,286047029.1,N
1502074195.3,286047030.5,N
1502074215.1,286047032.6,N
1502074216.0,286047032.6,N
1502074235.8,286047030.9,N
1502074255.7,286047032.4,N
1502074275.5,286047030.3,N
1502074295.3,286047028.9,N
1502074315.1,286047030.4,N
1502074335.9,286047030.3,N
1502074355.7,286047034.4,N
1502074375.5,286047030.7,N
1502074395.4,286047034.0,N
1502074415.2,286047035.5,N
1502074435.0,286047035.6,N
1502074435.9,286047035.6,N
1502074455.8,286047035.0,N
1502074475.6,286047033.4,N
1502074495.4,286047031.8,N
1502074515.3,286047034.3,N
1502074535.1,286047030.2,N
1502074536.0,286047030.2,N
1502074555.8,286047034.5,N
1502074575.7,286047030.2,N
1502074595.5,286047032.2,N
1502074615.3,286047034.6,N
1502074635.2,286047033.2,N
1502074655.9,286047032.0,N
1502074675.7,286047030.4,N
1502074695.6,286047031.5,N
1502074715.4,286047032.5,N
1502074735.2,286047033.1,N
1502074755.0,286047031.1,N
1502074756.0,286047031.1,N
1502074775.8,286047029.8,N
1502074795.6,286047029.5,N
